Погода в Круглово

Россия / Республика Марий Эл     56°30′10″N   46°00′02″E
темп.,
°C
ветер,
м/с
пор.,
м/с
влажн.,
%
обл.,
%
осадки,
мм/ч
давл.,
гПа
погр.,
м
19 января, вт
вт1900:00−23св1197100 0.0 102020
03:00−22в1197100 0.0 102020
06:00−22всв1196100 0.0 101920
09:00−21св1196100 0.0 101931
12:00−18св1191100 0.0 1018225
15:00−17с0192100 0.0 1017228
18:00−18ссз1196100 0.0 101656
21:00−19ссз1296100 0.0 101629
20 января, ср
ср2000:00−19ссз1297100 0.0 101657
03:00−19сз1297100 0.1 101679
06:00−19зсз1297100 0.1 101666
09:00−18зсз2396100 0.1 1016138
12:00−16з2394100 0.0 1017261
15:00−15з2396100 0.1 101792
18:00−18з239888 0.0 101861
21:00−18з259882 0.1 101889
21 января, чт
чт2100:00−17з269785 0.1 1019139
03:00−17з379786 0.1 1019185
06:00−18зюз379886 0.0 1019179
09:00−18зюз389792 0.1 1020235
12:00−14юз3793100 0.0 1019272
15:00−13ююз3892100 0.0 1017340
18:00−12ююз51287100 0.0 1014439
21:00−10юз51294100 1.3 1011818
22 января, пт
пт2200:00−10юз41094100 0.8 1009650
03:00−9юз41095100 1.8 1008621
06:00−6зюз3896100 1.3 1007528
09:00−5зюз2897100 2.6 1007395
12:00−1зюз2597100 0.3 1007301
15:00+1зюз39100100 1.3 1007337
18:00+1з51193100 0.6 1009562
21:000з3895100 0.6 1010433
23 января, сб
сб2300:000зюз2697100 0.0 1012196
03:000ююз2798100 0.1 1012295
06:00+1ююз3898100 0.4 1012389
09:00+1зюз4999100 0.8 1012417
12:00+1зюз39100100 0.3 1013424
15:00+1юз3899100 0.5 1013309
18:00+1юз41098100 0.2 1014419
21:00+1ююз4996100 0.2 1015376